Location: ????????
(38.4362°N, 22.8767°E)
Time: 23:15:45
(UTC+00:00)

Cosmos 1048 Rocket - Visible Passes

Search period start: 23 July 2024 00:00
Search period end: 02 August 2024 00:00
Orbit: 741 x 789 km, 74.0° (Epoch: 23 July)

Date Brightness Start Highest point End Pass type
(mag) Time Alt. Az. Time Alt. Az. Time Alt. Az.
23 Jul 4.4 18:27:50 10° NNW 18:33:10 69° WSW 18:38:28 10° S visible
24 Jul 6.7 19:34:03 10° WNW 19:36:29 13° W 19:38:54 10° WSW visible
25 Jul 6.2 18:54:33 10° NW 18:58:47 24° W 19:02:59 10° SSW visible
26 Jul 5.3 18:15:56 10° NNW 18:20:58 42° WSW 18:25:59 10° S visible
28 Jul 6.7 18:43:30 10° WNW 18:46:25 15° W 18:49:20 10° SW visible
29 Jul 6.2 18:04:17 10° NW 18:08:42 27° W 18:13:06 10° SSW visible
